Wind_Speed
40 37 34 33 30 28 26 22 20 18 17 16 14 12 10 14 15 12 14 15 18 19 22 26 27 26 22 16 18 17 14 13 15 20 21 19 18 17 19 18 15 25 26 25 25 25 23
42 39 37 34 32 29 28 24 22 20 18 17 15 13 12 12 14 14 17 17 17 21 24 27 29 24 22 18 15 13 13 11 14 14 18 20 19 17 21 20 17 22 24 26 27 27 29
45 42 39 36 34 32 28 26 24 22 20 18 17 14 14 13 14 16 16 18 20 23 27 30 26 27 22 16 15 10 6 8 12 10 11 16 18 19 17 19 19 22 26 25 22 22 27
47 43 41 37 35 33 30 28 26 23 22 19 18 17 16 15 15 15 17 18 22 25 31 28 27 25 19 13 3 2 2 0 3 7 9 12 18 19 19 19 19 21 24 28 24 18 11
50 46 42 39 36 35 31 30 28 26 24 21 20 19 19 17 17 16 18 21 23 26 28 29 26 18 14 6 8 4 7 7 9 5 3 13 16 17 19 20 22 21 22 21 21 13 21
52 50 44 40 38 36 34 32 30 28 25 23 22 21 20 19 19 18 20 24 26 27 30 30 19 16 13 16 13 10 10 11 13 13 9 9 10 13 14 15 19 14 16 22 27 26 24
53 52 47 43 40 39 36 34 33 30 28 25 24 22 20 21 20 21 24 26 28 26 29 27 14 14 15 14 15 7 8 2 4 8 10 10 11 7 3 7 14 19 24 28 29 28 31
56 52 49 46 42 41 37 35 34 32 30 27 25 24 22 22 19 21 26 28 29 32 36 12 10 15 14 11 1 4 9 8 7 8 5 4 1 5 9 14 20 21 25 32 30 26 28
57 52 50 47 44 43 37 36 36 33 31 28 26 25 23 21 19 21 25 25 26 30 32 7 9 11 14 9 5 6 6 6 3 1 3 9 7 4 10 16 19 22 27 28 31 33 37
57 53 50 48 46 44 38 37 36 35 32 29 27 25 25 22 19 21 23 24 24 28 14 5 7 6 11 6 3 2 1 3 5 6 14 13 6 14 23 24 26 30 31 32 34 28 23
59 54 52 49 45 44 39 37 37 36 34 29 29 25 26 22 20 21 23 21 20 24 5 8 5 5 9 3 2 1 5 10 13 15 17 24 27 26 33 34 29 34 31 29 31 36 37
60 57 54 50 45 42 41 37 37 36 35 30 30 27 26 22 22 22 22 21 19 7 5 3 8 11 9 5 4 8 11 12 17 22 25 24 25 34 41 39 29 31 35 35 34 30 15
62 59 56 50 47 43 43 38 39 36 36 33 30 30 27 23 22 23 22 20 7 5 4 3 6 9 15 23 26 22 23 23 21 27 31 37 39 37 22 28 25 23 25 7 5 3 7
62 59 56 51 48 45 43 41 39 39 36 35 32 31 28 24 23 23 23 16 6 8 12 21 25 26 27 29 26 19 21 22 23 25 32 26 18 20 17 22 23 21 20 13 6 4 17
44 60 58 52 50 48 44 41 41 39 36 38 33 34 29 25 22 23 23 17 11 13 13 17 24 27 13 8 24 25 24 32 24 13 13 14 12 17 34 31 25 16 22 22 24 29 12
43 61 54 52 51 47 47 41 42 39 42 36 34 35 30 25 23 23 24 27 26 28 28 25 26 16 23 27 19 15 15 17 19 16 17 27 38 27 21 27 27 26 22 12 9 4 8
55 63 48 53 54 49 46 44 43 42 41 36 36 37 33 28 24 29 33 35 36 33 28 30 31 33 35 34 35 27 19 29 28 25 26 29 32 32 23 21 27 25 24 23 21 18 7
59 43 47 42 53 50 48 46 43 45 40 40 38 38 35 32 31 39 39 42 39 40 39 33 36 36 37 35 36 32 31 33 33 33 29 29 34 33 34 30 31 32 32 27 19 6 9
77 61 43 43 52 52 46 46 50 47 45 43 40 38 41 32 39 40 41 42 42 38 39 34 38 39 36 38 36 32 30 34 32 32 20 23 15 16 11 8 15 23 23 21 19 18 12
73 65 68 46 58 53 52 53 46 46 47 41 41 43 45 40 48 42 41 45 48 42 43 39 43 40 40 42 41 40 34 37 35 29 27 28 31 29 25 26 25 18 18 15 16 9 13
64 54 46 52 49 58 64 53 62 49 52 44 46 51 48 32 41 41 45 48 48 47 43 44 39 39 36 40 39 36 36 34 33 30 32 29 37 40 39 39 37 39 33 29 25 25 27
59 50 42 43 39 51 69 57 51 54 53 50 50 57 53 52 38 42 46 42 41 43 39 37 38 37 35 33 33 35 34 32 30 26 26 29 33 34 38 29 28 29 24 28 35 34 34
59 57 47 48 50 39 31 75 53 63 59 58 58 58 57 47 40 37 39 40 41 39 38 38 35 38 36 34 32 31 30 29 28 28 24 22 20 16 14 13 20 21 19 14 22 21 24
65 52 53 45 49 47 43 30 34 44 60 56 60 56 52 45 47 43 36 35 35 32 32 33 31 28 28 26 23 22 23 25 28 28 25 20 14 19 15 15 6 7 4 13 19 23 25
61 65 54 52 46 45 40 42 48 35 48 60 54 53 46 44 38 39 33 28 30 31 29 27 25 25 22 18 16 12 12 16 14 14 16 17 17 13 7 11 23 25 23 22 25 32 26
59 55 58 48 43 45 38 33 23 35 45 37 47 36 37 38 36 30 27 28 30 28 24 23 20 16 15 14 12 7 5 7 5 4 6 6 8 14 15 8 6 12 21 22 17 20 7
65 55 45 41 38 27 29 36 34 38 38 34 29 29 29 28 25 27 29 28 25 22 19 16 15 15 13 14 12 8 7 7 6 6 10 17 16 16 16 14 13 17 13 18 8 19 22
62 56 44 41 41 41 34 37 38 37 39 44 37 31 22 22 27 25 22 18 16 15 12 11 13 15 14 10 6 6 6 7 9 14 12 11 8 10 8 5 9 10 20 22 28 28 29
50 54 46 35 33 27 29 32 32 32 34 31 29 26 20 27 20 21 16 13 10 12 11 13 12 6 7 6 7 5 8 8 9 7 12 11 15 10 12 18 27 29 28 25 25 28 30
Wind_Direction
233 233 232 234 237 243 247 249 254 257 263 271 277 278 279 295 300 308 320 325 328 331 336 339 334 331 331 315 298 291 279 263 255 240 240 236 239 249 261 267 262 254 263 263 267 267 264
233 233 234 234 238 238 244 248 251 254 258 264 268 271 281 289 291 307 317 323 323 325 333 336 332 327 332 317 306 294 284 257 243 238 234 231 234 245 257 253 252 257 257 264 267 274 278
231 231 234 236 237 240 242 247 250 253 256 263 265 267 277 282 288 303 313 321 320 325 328 330 328 320 325 306 305 309 278 246 237 228 227 227 232 238 241 254 256 262 271 269 271 290 287
232 231 232 233 237 240 242 245 249 251 253 257 260 263 269 274 284 298 310 315 319 326 332 333 325 315 322 306 307 321 202 230 186 219 221 223 214 229 242 250 257 272 276 287 298 296 288
230 230 230 233 235 240 242 243 245 248 251 254 256 259 265 271 281 294 308 314 321 328 332 336 325 316 314 271 275 268 270 289 280 252 212 233 229 236 250 264 282 283 287 293 301 281 301
229 230 228 230 233 238 239 243 245 246 249 253 254 256 261 269 278 292 304 310 322 328 336 337 330 321 306 283 264 274 268 284 253 235 232 219 234 252 268 272 268 300 298 295 289 298 302
227 230 228 227 230 235 238 242 243 244 247 250 252 255 259 266 279 294 302 304 306 328 345 343 333 335 334 298 266 247 252 40 89 190 210 239 249 275 292 268 291 297 294 291 289 297 298
226 227 228 228 227 232 234 239 242 244 247 248 251 253 256 263 278 294 304 315 325 332 338 5 6 354 10 8 50 210 185 148 117 122 148 223 223 351 302 301 295 290 288 285 295 301 298
224 226 227 228 228 231 230 236 240 243 247 249 250 253 256 262 277 291 300 314 327 334 342 357 13 28 29 50 100 133 142 150 136 216 297 285 289 322 335 310 287 282 283 292 295 297 291
221 223 224 226 227 229 229 233 237 239 244 249 251 251 253 256 271 286 297 310 325 336 339 331 357 15 21 31 91 163 194 262 269 280 288 290 273 297 308 310 306 290 288 289 288 298 296
222 222 223 223 224 228 229 230 234 239 240 245 248 247 248 251 265 277 292 302 321 339 350 316 331 327 359 357 324 336 249 279 282 285 280 280 289 298 303 310 306 290 290 284 287 287 289
221 222 223 222 222 223 227 228 233 236 241 241 246 245 245 246 259 272 282 293 310 345 262 300 294 301 317 323 317 269 290 288 290 287 280 283 289 293 301 299 293 287 284 289 287 280 267
220 222 223 221 222 221 225 226 232 234 238 241 243 244 243 246 256 268 277 283 318 212 269 267 258 282 292 299 299 290 285 283 279 291 285 289 286 295 293 297 292 283 281 299 288 200 243
217 219 223 221 223 221 222 225 229 232 235 238 241 241 241 241 253 266 276 288 247 242 256 283 276 285 285 289 296 298 291 285 277 289 290 291 296 296 290 292 278 269 244 220 254 230 285
210 215 215 221 221 223 219 223 227 229 233 236 238 240 237 241 250 264 271 243 253 270 283 277 287 294 294 280 304 301 298 297 293 286 273 302 269 287 290 282 267 257 244 257 253 269 286
205 203 209 215 222 222 221 218 225 226 232 233 238 240 234 235 246 253 258 248 256 274 290 285 277 273 277 301 295 292 300 285 282 277 281 287 290 300 287 264 254 248 258 247 217 250 249
190 198 210 207 216 220 219 217 220 225 229 232 235 238 233 230 243 246 242 258 267 274 292 281 265 275 273 287 285 286 270 293 282 275 271 275 279 281 271 260 259 252 241 247 254 234 251
208 209 204 209 211 217 217 215 216 223 224 227 230 235 241 235 241 244 248 264 271 270 288 271 280 272 276 279 280 278 273 283 280 282 277 277 275 272 273 271 264 260 269 259 241 260 245
230 221 212 214 204 213 212 218 220 222 224 224 226 234 237 224 242 241 254 266 265 269 272 271 276 282 281 284 270 278 284 283 279 284 273 280 259 282 295 285 245 250 255 248 248 259 253
228 234 237 235 220 210 216 217 220 224 225 222 226 229 236 239 242 254 251 268 260 269 271 275 272 275 274 277 272 276 278 285 289 284 280 276 250 248 256 273 281 254 249 233 260 248 274
221 228 233 217 228 220 220 216 219 220 228 220 228 230 238 234 242 258 262 262 259 263 261 273 270 269 279 266 269 272 281 282 286 286 271 273 265 266 269 272 267 269 277 279 281 284 277
201 202 216 215 221 218 215 212 217 217 226 222 224 229 243 241 257 251 254 250 261 263 260 269 274 281 275 263 275 281 280 281 283 276 272 271 264 273 276 279 284 287 288 287 290 291 287
196 192 210 225 228 213 217 224 222 221 219 217 229 232 234 248 245 248 261 267 268 262 265 273 273 271 270 272 273 276 276 276 273 277 279 259 263 274 275 285 301 295 300 295 292 288 285
196 194 196 204 210 227 221 226 216 228 222 227 227 232 238 250 251 256 262 263 256 269 266 271 269 264 269 274 274 274 273 275 276 277 265 248 263 285 284 308 256 281 309 297 289 286 287
201 192 196 209 225 216 223 233 231 235 228 227 228 231 244 239 247 259 257 265 263 267 264 260 259 266 269 266 270 273 274 278 277 270 267 269 268 272 262 275 285 300 298 294 289 289 288
199 197 202 202 213 220 228 223 243 231 222 234 232 226 235 244 257 250 255 258 254 253 247 250 252 255 254 249 245 241 238 273 252 227 224 266 313 261 268 273 271 299 294 286 277 292 283
193 195 194 204 203 221 229 223 234 229 221 213 228 223 238 235 251 256 253 253 250 245 239 238 235 228 235 241 250 252 237 222 257 240 257 276 290 282 274 263 278 291 312 327 316 309 320
194 205 200 203 216 219 204 218 223 224 225 235 240 234 235 247 251 253 253 251 242 231 230 229 216 233 241 234 237 234 241 232 251 259 267 282 270 257 256 252 276 268 313 305 308 304 308
186 195 203 200 211 207 216 217 214 206 201 209 217 226 246 242 247 238 234 229 220 211 223 217 219 214 215 206 220 224 236 252 254 265 279 254 248 255 257 263 280 294 296 293 295 297 300
Height
3123 3125 3127 3129 3132 3135 3138 3138 3140 3142 3143 3144 3144 3144 3142 3145 3143 3141 3140 3137 3133 3130 3128 3126 3122 3119 3115 3114 3112 3111 3110 3110 3110 3111 3113 3114 3116 3117 3116 3117 3118 3116 3116 3116 3115 3114 3114
3115 3118 3122 3123 3127 3128 3132 3134 3136 3137 3139 3140 3141 3141 3140 3140 3140 3139 3138 3135 3131 3128 3125 3123 3119 3115 3112 3110 3107 3106 3106 3105 3105 3107 3108 3109 3112 3113 3113 3113 3114 3114 3113 3111 3111 3112 3110
3108 3111 3115 3118 3121 3125 3127 3129 3132 3133 3135 3136 3138 3138 3137 3137 3136 3136 3134 3133 3130 3125 3123 3120 3115 3110 3108 3106 3102 3102 3102 3102 3102 3103 3105 3106 3108 3109 3109 3110 3111 3111 3109 3108 3109 3109 3106
3100 3104 3107 3110 3115 3119 3122 3125 3128 3129 3131 3131 3134 3135 3133 3133 3133 3132 3131 3129 3126 3123 3119 3116 3111 3106 3104 3101 3100 3100 3101 3101 3100 3101 3103 3103 3104 3106 3106 3108 3108 3109 3108 3105 3104 3103 3103
3090 3096 3099 3103 3108 3113 3116 3119 3122 3124 3126 3127 3129 3130 3130 3129 3130 3128 3127 3125 3123 3120 3116 3111 3107 3102 3100 3099 3099 3099 3099 3099 3099 3100 3101 3103 3103 3104 3105 3105 3106 3105 3103 3102 3097 3099 3098
3079 3087 3091 3095 3100 3106 3109 3113 3117 3119 3121 3123 3124 3125 3125 3126 3125 3125 3123 3121 3119 3118 3113 3106 3102 3101 3098 3096 3095 3097 3096 3096 3095 3097 3099 3100 3100 3101 3103 3103 3101 3102 3101 3098 3094 3092 3093
3070 3080 3084 3085 3091 3098 3102 3106 3111 3113 3116 3118 3119 3120 3121 3121 3121 3122 3120 3118 3118 3114 3111 3104 3100 3099 3095 3091 3090 3093 3094 3094 3092 3094 3097 3098 3100 3099 3100 3099 3099 3098 3096 3092 3089 3088 3084
3061 3068 3074 3079 3082 3090 3094 3100 3105 3108 3111 3112 3114 3116 3117 3117 3116 3117 3115 3112 3108 3108 3103 3099 3099 3096 3092 3088 3088 3090 3093 3096 3095 3094 3095 3098 3097 3097 3097 3097 3096 3094 3091 3086 3084 3083 3081
3049 3058 3065 3070 3074 3082 3085 3092 3098 3103 3105 3107 3109 3111 3113 3114 3112 3113 3112 3110 3106 3104 3103 3099 3098 3097 3094 3093 3092 3093 3095 3095 3096 3096 3095 3094 3096 3095 3095 3094 3091 3090 3087 3084 3081 3077 3073
3038 3048 3055 3061 3066 3073 3077 3085 3091 3096 3098 3101 3104 3106 3108 3109 3111 3109 3108 3105 3104 3101 3099 3099 3096 3095 3095 3094 3095 3095 3095 3097 3095 3095 3094 3092 3091 3090 3090 3089 3088 3082 3083 3079 3075 3073 3068
3030 3038 3046 3052 3056 3065 3071 3077 3084 3089 3091 3094 3098 3100 3103 3103 3104 3104 3106 3102 3101 3101 3100 3098 3095 3094 3094 3095 3095 3095 3094 3093 3092 3092 3092 3089 3085 3084 3083 3083 3083 3076 3076 3073 3069 3064 3060
3017 3027 3037 3042 3048 3054 3063 3070 3077 3082 3085 3086 3092 3094 3097 3098 3098 3099 3100 3099 3101 3103 3095 3094 3093 3093 3094 3094 3092 3092 3092 3092 3089 3086 3084 3082 3082 3080 3076 3075 3074 3072 3070 3067 3062 3061 3050
3004 3018 3027 3031 3040 3045 3055 3061 3070 3074 3076 3080 3085 3089 3091 3093 3093 3093 3095 3096 3099 3097 3094 3093 3093 3093 3090 3089 3088 3088 3087 3088 3087 3082 3079 3076 3073 3072 3069 3067 3067 3067 3067 3063 3057 3055 3045
2995 3007 3014 3021 3031 3038 3046 3054 3062 3067 3068 3073 3077 3083 3086 3087 3086 3087 3089 3093 3095 3091 3090 3089 3090 3091 3089 3085 3082 3080 3080 3079 3080 3078 3072 3066 3061 3064 3061 3062 3062 3060 3061 3061 3057 3049 3036
2977 2991 3001 3014 3021 3031 3038 3046 3054 3059 3061 3065 3069 3076 3079 3082 3081 3082 3083 3082 3085 3086 3086 3084 3085 3083 3080 3081 3081 3076 3074 3071 3070 3072 3072 3064 3056 3056 3056 3054 3057 3053 3052 3052 3048 3043 3040
2961 2978 2992 3004 3013 3022 3030 3036 3046 3050 3054 3056 3064 3069 3073 3075 3076 3076 3073 3072 3074 3078 3079 3079 3080 3079 3076 3075 3074 3073 3070 3066 3066 3067 3067 3060 3047 3048 3049 3048 3048 3048 3048 3047 3046 3042 3031
2951 2969 2981 2991 3001 3012 3021 3029 3037 3042 3047 3051 3057 3060 3066 3068 3070 3067 3060 3062 3066 3071 3074 3074 3072 3072 3070 3070 3068 3067 3061 3061 3060 3060 3060 3057 3052 3040 3042 3042 3041 3042 3039 3039 3037 3031 3021
2942 2954 2965 2977 2990 3002 3011 3021 3026 3034 3039 3043 3048 3050 3058 3061 3062 3055 3052 3056 3061 3062 3064 3065 3063 3064 3064 3063 3059 3058 3054 3057 3053 3052 3050 3049 3044 3032 3030 3034 3035 3033 3031 3032 3029 3023 3018
2933 2944 2958 2969 2981 2993 3000 3010 3018 3024 3028 3036 3039 3045 3047 3049 3046 3045 3046 3051 3053 3053 3053 3054 3056 3055 3056 3056 3053 3048 3047 3045 3047 3047 3043 3041 3036 3031 3024 3025 3025 3022 3023 3023 3020 3017 3012
2918 2934 2948 2963 2971 2981 2990 3000 3007 3015 3022 3030 3036 3037 3035 3036 3033 3038 3041 3041 3044 3045 3045 3045 3044 3045 3046 3044 3043 3038 3038 3036 3038 3040 3038 3037 3030 3026 3023 3023 3019 3019 3017 3017 3013 3011 3007
2913 2927 2940 2952 2962 2969 2980 2987 2998 3006 3014 3022 3026 3020 3024 3020 3021 3031 3037 3034 3034 3036 3036 3036 3034 3036 3037 3035 3034 3032 3031 3030 3028 3029 3030 3032 3023 3020 3017 3017 3015 3010 3010 3010 3009 3007 3004
2905 2920 2932 2942 2951 2960 2968 2977 2982 2995 3005 3011 3012 3011 3014 3014 3015 3022 3023 3021 3025 3027 3026 3025 3026 3027 3027 3026 3026 3025 3025 3023 3022 3021 3022 3021 3015 3012 3007 3010 3008 3003 3004 3003 3002 2999 2995
2898 2910 2925 2935 2944 2953 2959 2968 2976 2981 2990 2991 2994 3001 3006 3005 3008 3012 3012 3015 3016 3018 3017 3016 3018 3018 3017 3018 3017 3017 3017 3017 3016 3015 3015 3014 3011 3009 3003 3004 3001 2997 2996 2995 2993 2992 2991
2890 2903 2916 2927 2935 2945 2952 2959 2967 2971 2974 2981 2987 2991 2997 2994 2998 3004 3005 3006 3008 3008 3008 3009 3009 3010 3009 3009 3009 3009 3009 3010 3010 3010 3010 3008 3008 3007 3001 3001 2997 2993 2993 2991 2988 2986 2983
2882 2894 2908 2921 2928 2938 2945 2952 2958 2962 2967 2971 2977 2982 2985 2987 2992 2994 2996 2997 2998 2998 3000 3000 3001 3003 3004 3004 3005 3004 3003 3004 3004 3004 3003 3004 3004 3003 3001 2998 2990 2988 2988 2987 2983 2980 2977
2880 2890 2904 2913 2923 2930 2938 2945 2949 2958 2964 2966 2969 2974 2979 2981 2981 2987 2989 2990 2990 2990 2992 2993 2996 2997 2999 3000 3000 2998 2999 2999 3001 3001 3000 3000 3000 3001 2999 2996 2990 2985 2985 2983 2980 2976 2972
2876 2888 2899 2909 2917 2925 2934 2940 2944 2951 2957 2960 2964 2968 2971 2973 2975 2980 2980 2981 2983 2984 2985 2987 2990 2993 2994 2995 2995 2995 2996 2997 2999 2998 2997 2996 2995 2994 2992 2991 2986 2983 2981 2979 2981 2981 2971
2870 2884 2898 2905 2914 2926 2929 2934 2940 2945 2947 2953 2956 2960 2964 2968 2970 2972 2974 2977 2978 2979 2978 2982 2987 2986 2988 2990 2991 2991 2992 2993 2994 2996 2994 2993 2992 2990 2988 2986 2983 2979 2976 2972 2974 2970 2967
2870 2883 2894 2902 2914 2919 2924 2927 2933 2936 2940 2946 2950 2955 2960 2964 2965 2967 2969 2972 2975 2977 2978 2977 2981 2983 2983 2985 2988 2988 2989 2988 2990 2992 2991 2990 2988 2985 2984 2978 2977 2975 2971 2968 2965 2963 2961